Flag for Germany Weather past 2 weeks in Bad Neuenahr-Ahrweiler, Rhineland-Palatinate, Germany

Now
58 °F

Overcast.


Feels Like: 57 °F
Forecast: 52 / 67 °F
Wind: 5 mph from Southwest

Location: Bonn-Hangelar

Current Time: May 27, 2015 at 10:16:14 PM

Latest Report: May 27, 2015 at 10:00 PM


Visibility: 17 mi

Pressure: 30.11 "Hg

Humidity: 57%

Dew point: 43 °F

Location of Bad Neuenahr-AhrweilerLocation

Historic Weather in Bad Neuenahr-Ahrweiler — Graph

°F

Bad Neuenahr-Ahrweiler temperature yesterday

Maximum temperature yesterday: 57 °F (at 4:00 PM)
Minimum temperature yesterday: 45 °F (at 4:00 AM)
Average temperature yesterday: 52 °F

Past Weeks' High & Low Weather Summary

 TemperatureHumidityPressure
High66 °F (May 23, 3:00 PM)100% (May 15, 6:00 AM)30.37 "Hg (May 15, 6:00 AM)
Low39 °F (May 21, 5:00 AM)36% (May 13, 5:00 PM)29.67 "Hg (May 18, 8:00 PM)
Average52 °F75%30.09 "Hg
* Reported May 12 9:00 PM — May 27 9:00 PM, Bad Neuenahr-Ahrweiler, Weather by CustomWeather, © 2015

Note: Actual official high and low records may vary slightly from our data, if they occured in-between our weather recording intervals... More about our weather records

Advertising

Bad Neuenahr-Ahrweiler weather history for previous 24 hours

 ConditionsComfort  
Time TempWeatherWind HumidityBarometerVisibility
9:00 PM
Wed, May 27
58 °FPartly sunny.5 mph58%30.11 "Hg19 mi
8:00 PM60 °FPassing clouds.3 mph55%30.12 "Hg19 mi
7:00 PM62 °FPassing clouds.3 mph49%30.14 "Hg11 mi
6:00 PM60 °FScattered clouds.3 mph53%30.16 "Hg19 mi
5:00 PM62 °FPassing clouds.1 mph50%30.18 "Hg22 mi
4:00 PM61 °FScattered clouds.5 mph52%30.20 "Hg22 mi
3:00 PM59 °FPartly sunny.1 mph48%30.23 "Hg22 mi
2:00 PM58 °FOvercast.3 mph56%30.25 "Hg22 mi
1:00 PM56 °FScattered clouds.2 mph57%30.26 "Hg22 mi
12:00 PM55 °FOvercast.2 mph55%30.27 "Hg22 mi
11:00 AM54 °FPartly sunny.2 mph59%30.28 "Hg22 mi
10:00 AM54 °FScattered clouds.1 mph61%30.29 "Hg6 mi
9:00 AM52 °FPartly sunny.1 mph58%30.29 "Hg22 mi
8:00 AM51 °FPassing clouds.96 mph73%30.27 "Hg1 mi
7:00 AM47 °FOvercast.1 mph86%30.27 "Hg25 mi
6:00 AM46 °FOvercast.1 mph86%30.28 "Hg25 mi
5:00 AM46 °FOvercast.1 mph85%30.28 "Hg19 mi
4:00 AM47 °FOvercast.1 mph80%30.28 "Hg25 mi
3:00 AM48 °FOvercast.1 mph78%30.28 "Hg25 mi
2:00 AM47 °FOvercast.1 mph82%30.28 "Hg25 mi
1:00 AM48 °FOvercast.1 mph73%30.27 "Hg28 mi
12:00 AM47 °FPassing clouds.2 mph72%30.27 "Hg28 mi
11:00 PM
Tue, May 26
50 °FOvercast.2 mph69%30.26 "Hg25 mi
10:00 PM50 °FPassing clouds.3 mph64%30.24 "Hg28 mi
Weather by CustomWeather, © 2015

See weather overviewHow to use our weather pages